Location: Grand Rapids
(42.9630°N, 85.6680°W)
Time: 01:10:22
(UTC-04:00)

S-56A Canister/Altair - Pass Details

Date: 31 May 2024
Orbit: 637 x 2489 km, 38.9° (Epoch: 21 June)

Event Time Altitude Azimuth Distance (km) Brightness Sun altitude
Rises 03:52:02 0° 216° (SW) 5,997 - -18.3°
Reaches altitude 10° 03:56:11 10° 209° (SSW) 5,088 - -17.9°
Exits shadow 03:59:58 20° 200° (SSW) 4,322 10.7 -17.5°
Maximum altitude 04:09:35 41° 146° (SSE) 3,180 10.4 -16.5°
Drops below altitude 10° 04:21:36 10° 83° (E) 4,591 12.1 -15.2°
Sets 04:25:05 0° 77° (ENE) 5,380 12.7 -14.8°
